CST,Max TemperatureF,Mean TemperatureF,Min TemperatureF,Max Dew PointF,MeanDew PointF,Min DewpointF,Max Humidity, Mean Humidity, Min Humidity, Max Sea Level PressureIn, Mean Sea Level PressureIn, Min Sea Level PressureIn, Max VisibilityMiles, Mean VisibilityMiles, Min VisibilityMiles, Max Wind SpeedMPH, Mean Wind SpeedMPH, Max Gust SpeedMPH,PrecipitationIn, CloudCover, Events, WindDirDegrees
2014-1-1,51,36,21,42,32,19,93,76,55,30.29,30.12,29.95,10,10,10,12,3,17,0.00,3,,165
2014-1-2,48,36,23,44,21,10,93,58,36,30.51,30.25,29.93,10,10,10,18,8,28,0.00,2,Rain,326
2014-1-3,33,24,14,18,13,8,80,60,47,30.56,30.42,30.22,10,10,10,10,5,18,0.00,0,,115
2014-1-4,49,38,26,39,27,17,74,62,53,30.21,30.03,29.87,10,10,10,12,6,20,0.00,5,,139
2014-1-5,53,35,16,50,34,-1,100,81,47,30.46,29.89,29.70,10,9,2,20,12,29,0.21,7,Rain,279
2014-1-6,20,15,10,1,-6,-10,66,41,27,30.66,30.60,30.49,10,10,10,16,10,29,0.00,0,,289
2014-1-7,37,21,5,11,6,1,82,53,30,30.63,30.51,30.41,10,10,10,13,4,17,0.00,0,,179
2014-1-8,33,30,26,32,21,10,100,69,47,30.47,30.38,30.33,10,9,3,7,4,,0.10,7,Rain-Snow,98
2014-1-9,35,34,32,36,33,32,100,99,93,30.39,30.25,30.16,10,4,2,5,3,,0.17,8,Rain,67
2014-1-10,55,45,35,55,47,36,100,98,86,30.15,29.86,29.68,10,8,1,14,5,20,0.94,8,Rain,139
2014-1-11,56,45,32,46,35,29,99,69,42,30.06,29.91,29.73,10,10,10,16,9,21,0.00,0,,263
2014-1-12,66,46,27,35,31,25,94,58,27,30.11,29.98,29.85,10,10,10,15,5,22,0.00,1,,175
2014-1-13,63,52,40,52,42,29,94,67,31,30.00,29.85,29.80,10,10,10,15,9,23,0.00,4,Rain,226
2014-1-14,60,44,28,39,28,16,92,54,25,30.20,30.04,29.96,10,10,10,20,5,25,0.00,2,Rain,286
2014-1-15,43,34,25,21,13,2,75,48,19,30.30,30.21,30.09,10,10,10,15,6,20,0.00,1,,284
2014-1-16,61,48,34,29,22,16,54,40,28,30.08,29.98,29.86,10,10,10,24,9,31,0.00,2,,234
2014-1-17,43,32,20,20,9,2,70,36,19,30.23,30.16,30.00,10,10,10,21,12,30,0.00,0,,274
2014-1-18,61,40,19,28,20,14,81,46,25,30.20,30.02,29.83,10,10,10,24,7,31,0.00,1,,247
2014-1-19,60,44,27,24,21,17,78,40,20,30.24,30.12,30.02,10,10,9,13,7,,0.00,0,,246
2014-1-20,69,51,33,36,29,24,68,44,27,30.05,29.95,29.83,10,10,10,15,6,25,0.00,0,,230
2014-1-21,48,35,21,20,10,3,67,40,27,30.37,30.26,30.05,10,10,10,17,10,26,0.00,1,,339
2014-1-22,48,32,16,18,15,12,84,56,27,30.29,30.21,30.11,10,10,10,9,2,,0.00,0,,294
2014-1-23,31,24,13,21,2,-9,75,39,22,30.82,30.61,30.31,10,10,10,15,5,24,0.00,5,,15
2014-1-24,36,21,6,4,-1,-5,73,39,17,30.81,30.53,30.15,10,10,10,17,5,,0.00,0,,203
2014-1-25,59,42,26,29,19,5,80,44,27,30.12,30.02,29.96,10,10,10,15,9,21,0.00,1,,238
2014-1-26,64,44,25,36,30,22,87,61,30,29.96,29.83,29.72,10,10,10,21,4,26,0.00,0,,207
2014-1-27,46,34,23,30,-1,-10,87,28,17,30.44,30.27,29.85,10,10,10,17,11,31,0.00,3,,3
2014-1-28,31,22,12,6,0,-7,73,41,22,30.53,30.46,30.40,10,10,10,14,9,17,0.00,5,Snow,27
2014-1-29,41,24,7,11,7,3,82,49,23,30.50,30.39,30.28,10,10,2,7,3,,0.00,0,,169
2014-1-30,48,36,23,22,14,6,52,40,24,30.26,30.10,29.96,10,10,10,17,8,29,0.00,2,,171
2014-1-31,55,42,29,47,33,17,81,67,48,30.04,29.98,29.90,10,10,7,8,3,,0.00,7,,106